Weather Service Report


829 
ASUS46 KSEW 011410
RWRWA 

WASHINGTON REGIONAL WEATHER ROUNDUP
NATIONAL WEATHER SERVICE SEATTLE WA
700 AM PDT TUE SEP 01 2015

NOTE:"FAIR" INDICATES FEW OR NO CLOUDS BELOW 12,000 FEET WITH NO 
SIGNIFICANT WEATHER AND/OR OBSTRUCTIONS TO VISIBILITY.

WAZ505-507>509-011500-
SEATTLE, TACOMA, EVERETT, AND VICINITY
  
CITY           SKY/WX    TMP DP  RH WIND       PRES   REMARKS
EVERETT        RAIN      56  54  93 VRB3      29.88S VSB 1            
BOEING FIELD   LGT RAIN  63  55  75 S9G25     29.86S                  
RENTON         CLOUDY    66  54  65 S9        29.86F HAZE             
SEATAC AIRPORT LGT RAIN  61  55  81 SW8       29.88S                  
JBLM-MCCHORD   CLOUDY    63  54  72 S12       29.87F                  
PUYALLUP       CLOUDY    63  54  72 VRB5      29.89R                  
BREMERTON      CLOUDY    57  57 100 S10       29.87F                  
JBLM-FT LEWIS  CLOUDY    62  55  76 S9        29.86F                  
TACOMA NARROWS CLOUDY    62  54  74 S13G20    29.87F                  
$$
 
WAZ001-503-506-510-514-515-011500-
NORTH INTERIOR
  
CITY           SKY/WX    TMP DP  RH WIND       PRES   REMARKS
BELLINGHAM     CLOUDY    57  55  94 S10       29.83                   
FRIDAY HARBOR  CLOUDY    54  52  93 CALM      29.84S                  
EASTSOUND      CLOUDY    57  55  94 S9        29.81F                  
PORT ANGELES   CLOUDY    56  54  93 CALM      29.84F FOG              
PORT TOWNSEND  CLOUDY    57  57 100 CALM      29.85S                  
NAS WHIDBEY    CLOUDY    58  56  93 SE5       29.89S                  
ARLINGTON      CLOUDY    57  52  82 S6        29.87S                  
BURLINGTON     CLOUDY    57  57 100 S3G12     29.85S                  
$$
 
WAZ020-022-039-040-504-511-512-011500-
SOUTHWEST INTERIOR
  
CITY           SKY/WX    TMP DP  RH WIND       PRES   REMARKS
SHELTON        RAIN      59  58  96 CALM      29.84S FOG              
OLYMPIA        CLOUDY    60  55  83 S7        29.87F                  
CHEHALIS       CLOUDY    63  55  77 S9        29.89S                  
KELSO          NOT AVBL                                               
VANCOUVER      CLOUDY    63  53  70 SE5       29.94S                  
SCAPPOOSE, OR  CLOUDY    60  55  83 S3        29.92F                  
PORTLAND, OR   MOCLDY    63  54  72 S6        29.94F                  
$$
 
WAZ021-516-517-011500-
WASHINGTON COAST
  
CITY           SKY/WX    TMP DP  RH WIND       PRES   REMARKS
FORKS          CLOUDY    58  58 100 CALM      29.83F                  
HOQUIAM        CLOUDY    61  59  93 S9        29.86S FOG              
ASTORIA, OR    LGT RAIN  62  59  90 S12       29.88F FOG              
$$
 
WAZ019-023-024-040-518-519-011500-
CASCADE MOUNTAINS AND COLUMBIA GORGE
  
CITY           SKY/WX    TMP DP  RH WIND       PRES   REMARKS
TROUTDALE, OR  CLOUDY    63  54  72 CALM      29.94F                  
THE DALLES, OR CLEAR     58  48  69 W7        29.92R                  
$$

WAZ026-027-041>044-520-521-011500-
EAST SLOPES
  
CITY           SKY/WX    TMP DP  RH WIND       PRES   REMARKS
OMAK           PTCLDY    55  44  66 SW10      29.81R                  
WENATCHEE      CLEAR     53  46  77 E5        29.84R                  
ELLENSBURG     CLEAR     50  43  77 CALM      29.88R                  
YAKIMA         PTCLDY    48  40  73 VRB7      29.89R                  
$$

WAZ028-034-035-011500-
COLUMBIA BASIN
  
CITY           SKY/WX    TMP DP  RH WIND       PRES   REMARKS
EPHRATA        CLEAR     48  43  82 CALM      29.85R                  
MOSES LAKE     CLEAR     61  46  57 S12       29.86R                  
PASCO          PTCLDY    60  49  66 SW8       29.90R                  
HERMISTON, OR  PTCLDY    58  48  69 S9        29.91R                  
$$

WAZ036>038-011500-
NORTHEAST WASHINGTON
  
CITY           SKY/WX    TMP DP  RH WIND       PRES   REMARKS
SPOKANE GEIGER PTCLDY    52  45  77 S13       29.91R                  
SPOKANE FELTS  PTCLDY    53  46  77 VRB3      29.92R                  
FAIRCHILD AFB  CLEAR     50  45  84 S13       29.90S                  
COEURDALENE,ID PTCLDY    54  45  71 S12       29.92R                  
DEER PARK      CLEAR     52  45  77 SE7       29.91R                  
$$

WAZ029>033-011500-
SOUTHEAST WASHINGTON
  
CITY           SKY/WX    TMP DP  RH WIND       PRES   REMARKS
PULLMAN        PTCLDY    54  44  69 CALM      29.95R                  
LEWISTON, ID   PTCLDY    54  43  66 CALM      29.92R                  
WALLA WALLA    PTCLDY    61  47  59 S10       29.92S                  
PENDLETON, OR  PTCLDY    52  45  77 S7        29.94R                  
$$

Return to Home page


Western Regional Climate Center, wrcc@dri.edu